View from above orbital plane
|
View from above satellite
|
Ground track
|
The orbit data is extracted from the following two-line orbital elements,
1 40012U 14033C 21023.59525130 .00000187 00000-0 35010-4 0 9995
2 40012 97.6866 233.5142 0058445 10.1408 350.0965 14.74230103354859
Epoch (UTC): | 23 January 2021 14:17:09 |
Eccentricity: | 0.0058445 |
inclination: | 97.6866° |
perigee height: | 606 km |
apogee height: | 688 km |
right ascension of ascending node: | 233.5142° |
argument of perigee: | 10.1408° |
revolutions per day: | 14.74230103 |
mean anomaly at epoch: | 350.0965° |
orbit number at epoch: | 35485 |
The dashed part of the orbit path shows where the satellite is in the earth's shadow,
|
|